Regional Weather Roundup
Issued by NWS

Home | Current Version | Previous Version | Text Only | Print | Product List | Glossary On
Versions: 1 2 3 4 5 6 7 8 9 10 11 12 13 14 15 16 17 18 19 20 21 22 23 24 25 26 27 28 29 30 31 32 33 34 35 36 37 38 39 40 41 42 43 44 45 46 47 48 49 50
000
ASUS43 KMPX 020110
RWRMN
WEATHER ROUNDUP FOR MINNESOTA
NATIONAL WEATHER SERVICE TWIN CITIES/CHANHASSEN MN
800 PM CDT TUE SEP 01 2015


NOTE: "FAIR" INDICATES FEW OR NO CLOUDS BELOW 12,000 FEET WITH NO
SIGNIFICANT WEATHER AND/OR OBSTRUCTIONS TO VISIBILITY. N/A MEANS
CURRENT SKY AND/OR WEATHER CONDITIONS ARE NOT AVAILABLE.

MNZ060>063-068>070-020200-
   Twin Cities Metro

CITY           SKY/WX    TMP DP  RH WIND       PRES   REMARKS
TWIN CITIES    MOCLDY    84  72  67 SW7       29.90R
ST PAUL        MOCLDY    79  74  84 S5        29.89R
CRYSTAL        MOCLDY    80  74  81 CALM      29.89R
BLAINE         MOCLDY    81  75  83 VRB5      29.90R
LAKEVILLE      MOCLDY    73  73 100 CALM      29.91R
EDEN PRAIRIE   MOCLDY    80  72  76 SW6       29.90R
SOUTH ST PAUL  PTCLDY    82  73  74 S3        29.90R
LAKE ELMO      FAIR      79  77  94 CALM      29.92R FOG
$$
MNZ001>005-007-008-013>017-022>024-027-028-020200-
   Northwest Minnesota

CITY           SKY/WX    TMP DP  RH WIND       PRES   REMARKS
BEMIDJI        PTCLDY    73  52  47 E6        29.90S
HALLOCK        CLEAR     79  57  47 SE5       29.81R
ROSEAU         CLEAR     72  64  78 CALM      29.85S
WARROAD        CLEAR     73  64  73 CALM      29.86S
THIEF RVR FALL CLEAR     75  55  50 SE6       29.85S
CROOKSTON      CLEAR     75  57  53 SE6       29.84R
FOSSTON        PTCLDY    75  48  38 SE3       29.88R
DETROIT LAKES  MOCLDY    77  61  57 SE7       29.90R
MOORHEAD       CLEAR     81  63  54 SE5       29.85R
PARK RAPIDS    MOCLDY    78  60  53 SE6       29.90R
MAHNOMEN       FAIR      76  59  55 SE3       29.88R
$$
MNZ006-009>011-018-025>026-020200-
   North Central Minnesota

CITY           SKY/WX    TMP DP  RH WIND       PRES   REMARKS
BAUDETTE       CLEAR     71  60  68 E3        29.87S
FLAG ISLAND    CLEAR     72  64  78 S3        29.85S
INTL FALLS     CLEAR     64  59  83 CALM      29.89S
WASKISH        CLEAR     70  63  78 CALM      29.89S
BIG FORK       PTCLDY    68  63  83 CALM      29.92R
LONGVILLE      MOCLDY    70  66  88 CALM      29.91S
GRAND RAPIDS     N/A     68  59  73 CALM      29.93R
CRANE LAKE     PTCLDY    64  61  88 S1        29.93
ORR            PTCLDY    66  57  72 CALM      29.90R
COOK           MOCLDY    68  61  77 CALM      29.93R
WALKER         FAIR      72  61  68 CALM      29.90S
$$
MNZ012-019>021-037-020200-
   Northeast Minnesota

CITY           SKY/WX    TMP DP  RH WIND       PRES   REMARKS
DULUTH         PTCLDY    76  68  76 SW5       29.93R
ELY            MOCLDY    66  61  82 CALM      29.94R
HIBBING        MOCLDY    68  61  78 CALM      29.93R
EVELETH        MOCLDY    66  61  82 CALM      29.95R
DULUTH HARBOR  PTCLDY    68  66  94 CALM      29.90R
TWO HARBORS    PTCLDY    75  70  83 CALM      29.90S
SILVER BAY     MOCLDY    72  70  94 CALM      29.91R FOG
GRAND MARAIS     N/A     66  64  93 CALM      29.89S
G MARAIS ARPRT PTCLDY    63  54  72 CALM      29.97R
$$
MNZ029>031-032-039>041-046>048-054>057-064-020200-
   West Central Minnesota

CITY           SKY/WX    TMP DP  RH WIND       PRES   REMARKS
FERGUS FALLS   MOCLDY    79  72  78 S9        29.86R
WHEATON        PTCLDY    73  70  88 SE8       29.86F
MORRIS         CLOUDY    75  72  88 SE5       29.87S
ALEXANDRIA     CLOUDY    76  71  85 S6        29.92R
ELBOW LAKE     FAIR      76  72  86 SE6       29.88S
WADENA         CLOUDY    75  64  69 SE3       29.90R
GLENWOOD       CLOUDY    75  70  83 SW3       29.92S
APPLETON       CLOUDY    79  72  78 E7        29.83F
BENSON         CLOUDY    75  70  83 CALM      29.87F
ORTONVILLE     MOCLDY    75  70  83 E6        29.84F
MADISON        CLOUDY    75  72  88 S8        29.86R
WILLMAR        LGT RAIN  75  73  94 CALM      29.91S
$$
MNZ033>034-036-042>043-049>051-058-059-020200-
   Central Minnesota

CITY           SKY/WX    TMP DP  RH WIND       PRES   REMARKS
ST CLOUD       CLOUDY    77  74  90 S6        29.91S
SAUK CENTRE    FAIR      74  72  91 W7        29.91R
PAYNESVILLE    LGT RAIN  75  66  74 SE8       29.91R
AITKIN         CLOUDY    75  68  78 CALM      29.90S
PINE RIVER     CLOUDY    73  66  78 CALM      29.94R
BRAINERD       CLOUDY    74  65  73 CALM      29.91R
STAPLES        CLOUDY    75  66  73 CALM      29.89F
LONG PRAIRIE   FAIR      73  70  88 SW6       29.91R
LITTLE FALLS   LGT RAIN  77  70  78 SE12      29.88F
LITCHFIELD     CLOUDY    75  75 100 SE8       29.90F
BUFFALO        MOCLDY    78  73  82 CALM      29.92R
MAPLE LAKE     MOCLDY    77  75  93 CALM      29.92S
$$
MNZ037-044-045-052-053-020200-
   East Central Minnesota

CITY           SKY/WX    TMP DP  RH WIND       PRES   REMARKS
PRINCETON      CLOUDY    79  73  83 CALM      29.91R
MORA           CLOUDY    75  72  88 S3        29.93R
CAMBRIDGE      CLOUDY    81  70  69 CALM      29.90R
RUSH CITY      MOCLDY    75  72  88 CALM      29.91S
MOOSE LAKE     MOCLDY    73  72  94 CALM      29.90R FOG
HINCKLEY       FAIR      75  73  94 CALM      29.91S
CLOQUET        PTCLDY    73  68  83 CALM      29.93R
MCGREGOR       MOCLDY    73  70  88 E3        29.91F
$$
MNZ071>073-080-081-089-090-097-098-020200-
   Southwest Minnesota

CITY           SKY/WX    TMP DP  RH WIND       PRES   REMARKS
MONTEVIDEO     CLOUDY    75  73  94 S8G17     29.89S FOG
GRANITE FALLS  LGT RAIN  74  73  97 CALM      29.90R
CANBY          CLOUDY    77  71  81 S8        29.88R
MARSHALL       CLOUDY    75  70  83 CALM      29.92R
REDWOOD FALLS  CLOUDY    77  72  84 S5        29.89R
OLIVIA         LGT RAIN  72  68  88 CALM      29.90S
PIPESTONE      RAIN      75  72  88 NE3       29.92S
WINDOM         MOCLDY    79  72  78 CALM      29.92R
WORTHINGTON    MOCLDY    75  70  83 S7        29.91R
JACKSON        PTCLDY    77  72  83 S7        29.92S
TRACY          CLOUDY    76  73  89 CALM      29.91R
SLAYTON        CLOUDY    74  72  95 CALM      29.93R
$$
MNZ065>067-074>077-082>085-091>093-020200-
   South Central Minnesota

CITY           SKY/WX    TMP DP  RH WIND       PRES   REMARKS
MANKATO        MOCLDY    79  72  78 S7        29.90S
NEW ULM        CLOUDY    79  73  83 CALM      29.91R
ST JAMES       MOCLDY    79  73  83 SE7       29.91R
FAIRMONT       MOCLDY    75  66  73 S6        29.91S
GLENCOE        MOCLDY    78  75  89 CALM      29.90S
FARIBAULT      CLOUDY    79  73  83 S3        29.92R
OWATONNA       MOCLDY    79  72  78 S6        29.92S
WASECA         MOCLDY    77  72  83 S7        29.93S
ALBERT LEA     MOCLDY    79  72  78 S6        29.94S
$$
MNZ078>079-086>088-094>096-020200-
   Southeast Minnesota

CITY           SKY/WX    TMP DP  RH WIND       PRES   REMARKS
ROCHESTER      MOCLDY    76  73  91 S7        29.95S
RED WING       PTCLDY    82  72  69 CALM      29.90R
STANTON        MOCLDY    78  72  80 CALM      29.90S
DODGE CENTER   MOCLDY    75  72  88 S7        29.94S
WINONA         PTCLDY    81  72  74 CALM      29.92S
AUSTIN         MOCLDY    79  73  83 S5        29.95R
PRESTON        PTCLDY    76  72  85 S5        29.96S
$$
ABBREVIATIONS USED IN REMARKS
   TC - TEMPERATURES IN CELSIUS
  WCI - WIND CHILL INDEX
   HX - HEAT INDEX
  VSB - VISIBILITY
$$


USA.gov is the U.S. government's official web portal to all federal, state and local government web resources and services.